Zurück zum Katalog

STARLINK-30514

AktivKommunikationVLEO
NORAD 58028·PAYLOAD·🇺🇸 United States

Gestartet Oct 9, 2023 von Vandenberg Space Force Base

Loading…

Nächste Überflüge (nächste 24 Stunden)

TLE

AktuellSource: CelesTrak SupGP

Epoche: Sep 14, 2026, 20:46 UTC

1 58028C 23156A   26257.86576389  .00031710  00000+0  93715-3 0  2570
2 58028  53.1577 277.7428 0001188  89.5331  29.3837 15.34365678    18

Verfolge STARLINK-30514 in Echtzeit mit AllMySat

Download on the App Store